This is the latest recevied weather packets stored in our database for station/object KP4OZ. If no packets are shown the sender has not sent any weather packets the latest 1 day(s).
| Time | Temp. | Humidity | Pressure | Rain* | Wind** | Luminosity | Snow |
|---|---|---|---|---|---|---|---|
| 1778025132 | 28.89° C | 67% | 1017.6 hPa | 0 mm | 1.79 m/s, 198° | - | - |
| 1778024829 | 28.89° C | 66% | 1017.3 hPa | 0 mm | 0.89 m/s, 111° | - | - |
| 1778024526 | 28.89° C | 66% | 1017.3 hPa | 0 mm | 2.24 m/s, 150° | - | - |
| 1778024222 | 28.89° C | 65% | 1017.2 hPa | 0 mm | 0.89 m/s, 149° | - | - |
| 1778023920 | 28.89° C | 65% | 1017.3 hPa | 0 mm | 2.68 m/s, 82° | - | - |
| 1778023618 | 29.44° C | 65% | 1017.1 hPa | 0 mm | 1.34 m/s, 75° | - | - |
| 1778023315 | 29.44° C | 65% | 1017.1 hPa | 0 mm | 0.89 m/s, 86° | - | - |
| 1778023011 | 29.44° C | 64% | 1017.1 hPa | 0 mm | 1.34 m/s, 60° | - | - |
| 1778022711 | 29.44° C | 64% | 1017.2 hPa | 0 mm | 1.79 m/s, 132° | - | - |
| 1778022408 | 29.44° C | 64% | 1017 hPa | 0 mm | 1.34 m/s, 73° | - | - |
| 1778022105 | 29.44° C | 64% | 1017 hPa | 0 mm | 1.79 m/s, 32° | - | - |
| 1778021800 | 29.44° C | 63% | 1016.8 hPa | 0 mm | 2.24 m/s, 159° | - | - |
| 1778021497 | 30° C | 63% | 1016.9 hPa | 0 mm | 2.24 m/s, 178° | - | - |
| 1778021194 | 30° C | 62% | 1016.8 hPa | 0 mm | 1.79 m/s, 150° | - | - |
| 1778020892 | 30° C | 62% | 1016.7 hPa | 0 mm | 1.79 m/s, 186° | - | - |
| 1778020589 | 30° C | 61% | 1016.7 hPa | 0 mm | 1.79 m/s, 246° | - | - |
| 1778020284 | 30.56° C | 60% | 1016.6 hPa | 0 mm | 1.79 m/s, 23° | - | - |
| 1778019981 | 30.56° C | 58% | 1016.5 hPa | 0 mm | 2.68 m/s, 153° | - | - |
| 1778019677 | 30.56° C | 59% | 1016.5 hPa | 0 mm | 1.79 m/s, 202° | - | - |
| 1778019374 | 30.56° C | 59% | 1016.5 hPa | 0 mm | 2.24 m/s, 182° | - | - |
| 1778019071 | 31.11° C | 58% | 1016.5 hPa | 0 mm | 2.68 m/s, 118° | - | - |
| 1778018768 | 31.11° C | 56% | 1016.3 hPa | 0 mm | 3.13 m/s, 52° | - | - |
| 1778018466 | 31.11° C | 55% | 1016 hPa | 0 mm | 2.68 m/s, 191° | - | - |
| 1778018163 | 31.67° C | 54% | 1016.2 hPa | 0 mm | 0.89 m/s, 145° | - | - |
| 1778017861 | 31.67° C | 55% | 1016 hPa | 0 mm | 2.68 m/s, 117° | - | - |
* Rain latest hour (hover to see other rain measurements)
** Current wind speed in m/s (hover to see current wind gust speed)